Regional Weather Roundup
Issued by NWS

Home | Current Version | Previous Version | Graphics & Text | Print | Product List | Glossary On
Versions: 1 2 3 4 5 6 7 8 9 10 11 12 13 14 15 16 17 18 19 20 21 22 23 24 25 26 27 28 29 30 31 32 33 34 35 36 37 38 39 40 41 42 43 44 45 46 47 48 49 50
000
ASUS43 KLSX 221657
RWRMO

WEATHER SUMMARY FOR MISSOURI
NATIONAL WEATHER SERVICE SPRINGFIELD MO
1200 PM CDT SUN OCT 22 2017

NOTE: "FAIR" INDICATES FEW OR NO CLOUDS BELOW 12,000 FEET WITH NO
       SIGNIFICANT WEATHER AND/OR OBSTRUCTIONS TO VISIBILITY.
       CURRENT SKY AND/OR WEATHER CONDITIONS ARE NOT AVAILABLE FOR
       CHILLICOTHE AND FARMINGTON.

MOZ001>031-035>038-043-044-053-054-221800-
...NORTHERN AND WESTERN MISSOURI...

CITY           SKY/WX    TMP DP  RH WIND       PRES   REMARKS
KANSAS CTY INT PTSUNNY   58  47  66 NW8       30.14R
LEE`S SUMMIT   CLOUDY    58  47  66 NW9       30.14R
ST JOSEPH      MOSUNNY   59  46  62 NW9       30.14R
CHILLICOTHE      N/A     58  49  72 NW3       30.12R

$$
MOZ066>068-077>081-088>096-101>105-221800-
...SOUTHWEST MISSOURI...

CITY           SKY/WX    TMP DP  RH WIND       PRES   REMARKS
SPRINGFIELD    LGT RAIN  53  53 100 N14       30.11R FOG
JOPLIN         CLOUDY    55  49  80 N12       30.16R
BRANSON        LGT RAIN  52  52 100 NW8       30.11R FOG

$$
MOZ032>034-039>042-045>050-055>058-069>072-221800-
...CENTRAL MISSOURI...

CITY           SKY/WX    TMP DP  RH WIND       PRES   REMARKS
COLUMBIA       NOT AVBL
JEFFERSON CITY LGT RAIN  53  49  86 N12G21    30.09R
ROLLA          CLOUDY    53  52  96 NW13      30.07R FOG
SEDALIA        CLOUDY    53  51  93 NW8       30.13R
WARRENSBURG    CLOUDY    54  48  82 W6        30.13R

$$
MOZ051-052-059>065-221800-
...EAST CENTRAL MISSOURI...

CITY           SKY/WX    TMP DP  RH WIND       PRES   REMARKS
ST LOUIS INTL  CLOUDY    60  58  92 NW10      29.99R
SPIRIT OF STL  CLOUDY    59  57  94 W14       30.01R FOG

$$
MOZ072>076-082>087-097>100-106>115-221800-
...SOUTH CENTRAL AND SOUTHEAST MISSOURI...

CITY           SKY/WX    TMP DP  RH WIND       PRES   REMARKS
CAPE GIRARDEAU CLOUDY    72  62  71 S22G31    29.98R
POPLAR BLUFF   MOSUNNY   71  62  73 S8        29.98R
WEST PLAINS    CLOUDY    62  59  90 W5        30.04S

$$


USA.gov is the U.S. government's official web portal to all federal, state and local government web resources and services.